Location: Chandrammap?lem
(16.9200°N, 81.0051°E)
Time: 03:43:14
(UTC+00:00)

Cosmos 1544 Rocket - Pass Details

Date: 29 May 2024
Orbit: 602 x 626 km, 82.5° (Epoch: 21 June)

Event Time Altitude Azimuth Distance (km) Brightness Sun altitude
Rises 23:15:41 0° 339° (NNW) 2,903 7.1 -10.8°
Reaches altitude 10° 23:18:09 10° 328° (NNW) 1,995 6.1 -10.3°
Maximum altitude 23:21:56 28° 269° (W) 1,166 4.5 -9.5°
Drops below altitude 10° 23:25:43 10° 209° (SSW) 1,986 5.7 -8.7°
Sets 23:28:10 0° 198° (SSW) 2,887 6.6 -8.2°
Enters shadow 23:28:17 - 197° (SSW) 2,931 6.6 -8.1°
